Probability
3 4 6 9 9 6 3 3 4 6 6 6 6 5 4 3 3 3 2 1 0 0 0 0 0 0 0 0 0 0 0 0 0 0 0 0 0 0 0 0 0 0 0
1 2 4 7 7 5 3 3 4 5 5 6 6 5 3 3 2 2 1 0 0 0 0 0 0 0 0 0 0 0 0 0 0 0 0 0 0 0 0 0 0 0 0
0 1 2 5 5 4 3 4 5 6 5 4 5 4 3 2 1 1 0 0 0 0 0 0 0 0 0 0 0 0 0 0 0 0 0 0 0 0 0 0 0 0 0
0 1 2 3 4 4 3 4 5 5 4 3 3 2 2 1 0 0 0 0 0 0 0 0 0 0 0 0 0 0 0 0 0 0 0 0 0 0 0 0 0 0 0
1 1 2 2 3 3 2 3 3 2 2 2 1 0 1 1 0 0 0 0 0 0 0 0 0 0 0 0 0 0 0 0 0 0 0 0 0 0 0 0 0 0 0
0 1 1 1 1 1 1 1 1 1 0 0 0 0 0 0 0 0 0 0 0 0 0 0 0 0 0 0 0 0 0 0 0 0 0 0 0 0 0 0 0 0 0
0 0 0 0 0 0 0 0 0 1 0 0 0 0 0 0 0 0 0 0 0 0 0 0 0 0 0 0 0 0 0 0 0 0 0 0 0 0 0 0 0 0 0
0 0 0 0 0 0 0 0 0 0 0 0 0 0 0 0 0 0 0 0 0 0 0 0 0 0 0 0 0 0 0 0 0 0 0 0 0 0 0 0 0 0 0
0 0 0 0 0 0 0 0 0 0 0 0 0 0 0 0 0 0 0 0 0 0 0 0 0 0 0 0 0 0 0 0 0 0 0 0 0 0 0 0 0 0 0
0 0 0 0 0 0 0 0 0 0 0 0 0 0 0 0 0 0 0 0 0 0 0 0 0 0 0 0 0 0 0 0 0 0 0 0 0 0 0 0 0 0 0
0 0 0 0 0 0 0 0 0 0 0 0 0 0 0 0 0 0 0 0 0 0 0 0 0 0 0 0 0 0 0 0 0 0 0 0 0 0 0 0 0 0 0
0 0 0 0 0 0 0 0 0 0 0 0 0 0 0 0 0 0 0 0 0 0 0 0 0 0 0 0 0 0 0 0 0 0 0 0 0 0 0 0 0 0 0
0 0 0 0 0 0 0 0 0 0 0 0 1 1 1 1 1 0 0 0 0 0 0 0 0 0 0 0 0 0 0 0 0 0 0 0 0 0 0 0 0 0 0
0 0 0 0 0 0 0 0 0 0 1 1 1 2 2 2 2 1 0 0 0 0 0 0 0 0 0 0 0 0 0 0 0 0 0 0 0 0 0 0 0 0 0
0 0 0 0 0 0 0 0 0 0 1 1 2 3 3 3 2 1 0 0 0 0 0 0 0 0 0 0 0 0 0 0 0 0 0 0 0 0 0 0 0 0 0
1 0 0 0 0 0 0 0 0 0 1 1 1 2 2 2 1 1 0 0 0 0 0 0 0 0 0 0 0 0 0 0 0 0 0 0 0 0 0 0 0 0 0
1 0 0 0 0 0 0 0 0 0 0 0 1 1 1 1 0 0 0 0 0 1 1 1 0 0 0 0 0 0 0 0 0 0 0 0 0 0 0 0 0 0 0
1 0 0 0 0 0 0 0 0 0 0 0 0 0 0 0 0 0 0 0 1 2 2 1 0 0 0 0 0 0 0 0 0 0 0 0 0 0 0 0 0 0 0
0 0 0 0 0 0 0 0 0 0 0 0 0 0 0 0 0 0 0 0 1 2 2 1 0 0 0 0 0 0 0 0 0 0 0 0 0 0 0 0 0 0 0
0 0 0 0 0 0 0 0 0 0 0 0 0 0 0 0 0 0 0 0 1 1 1 0 0 0 0 0 0 0 0 0 0 0 0 0 0 0 0 0 0 0 0
0 0 0 0 0 0 0 0 0 0 0 0 0 0 0 0 0 0 0 0 0 0 0 0 0 0 0 0 0 0 0 0 0 0 0 0 0 0 0 0 0 0 0
0 0 0 0 0 0 0 0 0 0 0 0 0 0 0 0 0 0 0 0 0 0 0 0 0 0 0 0 0 0 0 0 0 0 0 0 0 0 0 0 0 0 0
0 0 0 0 0 0 0 0 0 0 0 0 0 0 0 0 0 0 0 0 0 0 0 0 0 0 0 0 0 0 0 0 0 0 0 0 0 0 0 0 0 0 0
0 0 0 0 0 0 0 0 0 0 0 0 0 0 0 0 0 0 0 0 0 0 0 0 0 0 0 0 0 0 0 0 0 0 0 0 0 0 0 0 0 0 0
0 0 0 0 0 0 0 0 0 0 0 0 0 0 0 0 0 0 0 0 0 0 0 0 0 0 0 0 0 0 0 0 0 0 0 0 0 0 0 0 0 0 0
0 0 0 0 0 0 0 0 0 0 0 0 0 0 0 0 0 0 0 0 0 0 0 0 0 0 0 0 0 0 0 0 0 0 0 0 0 0 0 0 0 0 0
Wind_Speed
4 5 6 6 6 7 7 7 7 7 7 5 5 4 3 2 2 2 3 4 4 4 4 3 3 3 3 3 3 3 3 3 2 2 3 3 3 3 2 2 1 1 1
5 5 5 6 7 8 8 8 8 8 7 5 4 3 4 3 2 2 2 3 4 4 4 5 4 3 3 3 3 3 3 2 2 2 2 2 3 3 3 2 2 2 1
8 8 7 6 7 8 9 9 8 8 7 6 5 5 4 3 2 2 2 2 3 4 4 5 4 4 3 3 3 3 4 3 2 1 3 3 2 2 2 2 2 2 1
6 7 7 7 8 8 7 7 8 7 7 8 8 8 5 4 4 3 2 2 3 4 4 5 5 4 3 3 3 3 2 4 2 1 2 1 2 2 1 2 2 2 1
8 8 7 7 7 7 7 7 8 7 7 8 9 8 5 4 3 3 4 3 2 2 4 4 4 4 3 3 3 3 3 2 3 2 2 2 2 1 2 1 2 2 1
7 6 5 5 5 5 6 7 8 8 8 8 8 8 8 7 6 5 5 3 2 1 3 4 4 4 3 4 3 3 3 3 3 2 2 2 2 2 2 2 1 1 2
8 7 7 7 6 6 7 7 9 8 8 9 8 8 8 8 8 7 6 5 3 3 4 4 4 3 3 3 3 3 3 3 3 3 2 2 2 2 2 2 1 1 2
8 8 8 8 7 7 7 8 9 8 9 9 8 7 8 6 5 6 6 6 4 4 4 5 5 4 4 4 4 3 2 2 3 3 2 1 1 2 2 3 3 1 1
9 8 8 7 7 8 8 8 8 8 8 8 8 7 7 6 6 6 5 4 4 4 5 5 5 5 5 5 5 3 3 3 3 3 3 2 1 2 2 2 2 3 2
7 8 7 7 7 7 6 7 7 7 7 8 8 7 7 7 6 6 6 5 5 4 5 6 6 5 5 5 5 4 3 4 3 3 3 3 2 2 2 2 2 2 3
8 8 7 7 7 6 7 7 7 7 7 8 7 7 6 6 6 6 6 6 5 5 6 6 6 6 6 6 6 5 5 5 5 4 5 5 3 3 2 2 2 3 3
6 6 7 7 7 7 7 8 7 7 7 7 7 6 6 6 6 6 5 5 5 6 6 6 6 6 6 6 7 7 7 7 7 6 6 6 4 5 4 4 4 4 5
5 5 5 6 7 7 7 8 8 8 7 7 7 6 6 6 6 5 4 4 5 4 5 5 6 6 6 7 7 7 7 7 7 7 7 7 6 6 5 5 5 5 5
6 5 5 5 5 5 6 7 6 7 7 7 7 7 6 6 5 4 4 4 4 4 5 5 6 6 6 6 6 7 7 7 7 7 7 7 7 8 7 6 6 6 5
6 6 6 5 4 5 5 5 6 6 7 7 7 6 5 4 4 4 3 3 3 4 4 3 3 3 4 5 6 6 7 6 6 6 6 7 7 8 7 6 6 6 5
6 6 6 6 6 5 5 5 5 5 6 6 5 4 5 4 3 3 3 3 2 2 2 2 2 1 1 2 4 5 4 4 5 5 4 4 4 5 6 7 7 6 6
6 6 6 5 5 5 6 6 5 6 6 6 5 5 5 5 4 3 3 3 3 3 3 2 3 2 2 2 1 1 1 0 1 1 1 1 1 1 2 3 4 4 5
7 6 5 5 4 5 5 6 7 7 7 7 6 5 6 5 5 4 4 3 3 3 3 3 3 3 4 5 4 5 4 3 3 3 2 2 3 4 3 2 3 3 3
7 6 6 6 6 7 8 10 9 9 9 8 7 6 6 6 6 5 5 4 5 5 5 5 5 6 6 7 6 5 4 4 4 4 4 4 3 5 5 3 3 4 5
9 9 8 9 9 8 9 12 11 10 9 8 7 7 7 7 7 6 5 5 6 6 6 7 7 7 7 9 8 5 3 3 2 2 3 4 3 4 5 3 3 5 6
10 10 10 9 8 8 10 12 11 9 7 8 9 9 8 7 7 6 6 6 7 7 7 7 6 6 7 8 9 8 4 3 2 2 2 3 5 5 5 4 3 5 7
11 11 11 10 8 8 11 13 10 7 7 9 9 8 7 7 7 7 7 6 7 7 6 6 5 5 5 6 7 8 6 4 2 2 2 3 6 6 6 4 5 8 6
11 10 11 12 9 8 9 12 7 7 9 10 9 8 8 7 7 7 6 6 5 5 4 4 3 3 3 4 7 7 7 6 3 2 4 5 6 6 5 6 8 6 4
11 10 11 12 10 8 9 8 7 8 10 10 8 6 7 7 7 5 5 5 4 4 3 3 2 2 3 3 4 4 4 5 4 4 5 6 6 5 5 6 5 4 4
10 10 10 11 10 8 8 7 7 8 9 8 7 6 6 6 6 6 5 5 3 2 3 2 1 2 2 4 5 4 4 4 4 4 3 4 4 6 6 6 6 6 5
10 10 10 10 9 9 8 6 5 7 8 7 6 4 4 4 5 5 6 10 7 8 7 5 3 2 2 5 7 7 7 7 6 3 3 4 5 6 6 7 7 7 7
Wind_Direction
180 165 168 167 162 162 160 159 155 157 150 143 143 141 145 137 126 132 138 137 135 136 130 124 119 122 120 125 123 105 87 64 54 77 39 13 25 40 33 17 18 11 356
173 177 177 170 173 173 168 160 162 161 164 159 149 140 129 126 121 119 121 135 137 142 139 135 134 131 119 111 113 118 108 71 50 108 92 28 357 360 14 10 20 7 3
184 183 184 187 180 179 176 170 166 164 161 146 126 112 92 84 97 117 126 141 146 142 136 141 138 139 133 134 132 131 130 126 65 67 134 143 211 306 339 2 12 3 8
184 182 183 183 185 181 170 167 164 160 158 151 152 154 155 158 172 159 149 141 140 140 141 142 140 141 138 139 141 129 130 132 131 85 60 105 148 149 332 334 349 351 352
187 185 184 184 183 173 167 168 165 163 164 162 163 162 155 150 137 135 140 139 126 137 145 145 142 143 144 145 136 129 130 130 144 150 136 109 78 96 143 242 322 338 325
188 182 173 166 171 167 167 165 164 167 168 166 167 166 159 151 146 152 154 150 140 145 158 152 151 151 151 154 151 144 138 133 136 143 150 156 158 167 157 176 235 288 306
182 174 169 170 173 172 176 174 171 171 171 170 173 170 165 163 165 167 168 163 167 185 189 170 167 167 171 164 152 150 150 150 150 157 160 167 168 153 150 149 168 249 302
183 180 179 177 177 176 176 171 174 176 174 175 175 167 166 167 171 173 170 177 185 191 182 181 183 182 176 171 162 159 169 166 168 172 167 167 173 168 166 160 151 154 306
182 182 179 177 175 176 179 175 172 173 175 175 168 168 170 172 175 175 175 180 185 184 181 184 189 190 185 179 168 178 187 177 187 187 186 189 195 185 183 170 163 159 203
178 181 181 180 179 176 171 166 168 172 170 172 174 177 176 178 175 169 179 187 191 186 181 189 193 194 193 188 181 186 192 188 199 196 195 205 211 202 191 186 182 175 179
180 183 182 179 171 162 163 168 170 166 167 173 174 173 173 175 172 181 192 193 194 192 195 196 196 198 200 196 195 203 195 200 209 206 208 218 206 206 202 191 187 190 184
176 174 173 167 166 169 171 174 175 175 175 171 169 173 169 171 178 191 196 193 199 201 202 198 200 206 206 200 202 212 208 209 216 218 215 226 216 216 213 205 207 208 205
161 159 157 165 173 175 175 176 177 179 169 162 167 172 174 178 184 192 192 189 197 201 198 194 205 212 211 207 211 214 215 216 221 220 219 226 218 226 223 219 222 222 218
154 155 159 162 167 167 168 170 172 169 164 163 169 179 185 184 185 186 183 189 193 195 200 204 211 215 213 213 215 215 220 223 227 228 227 229 223 230 230 229 231 229 229
153 159 159 154 149 150 156 162 165 165 166 166 172 179 173 169 170 174 180 184 189 201 199 199 206 212 212 219 216 216 221 223 230 234 235 236 234 236 234 236 235 228 235
155 154 149 147 153 156 157 152 152 154 152 156 163 154 147 146 149 150 151 148 146 145 143 161 163 165 228 257 223 216 227 228 232 240 241 241 245 252 246 245 240 227 234
141 141 142 144 147 148 148 147 138 125 129 132 130 134 134 129 131 132 124 120 113 104 101 98 102 89 29 20 38 136 162 207 252 252 260 283 7 339 298 287 281 269 261
127 124 119 114 110 109 115 114 112 114 113 107 105 111 118 118 116 112 106 97 98 97 91 79 82 76 48 56 74 82 84 70 55 51 56 60 32 19 3 344 340 326 313
113 107 104 102 99 104 111 107 101 100 100 100 99 99 104 103 97 94 92 90 90 83 76 72 70 69 47 45 59 77 80 71 53 45 48 55 42 14 17 18 345 325 313
101 101 97 93 92 96 105 102 99 96 95 97 94 90 92 96 94 91 85 81 86 83 78 68 61 64 56 46 54 68 75 68 45 33 37 42 22 1 5 360 329 311 307
98 97 93 88 86 93 98 95 91 87 89 90 87 82 82 87 89 85 80 83 83 79 74 70 57 52 48 44 47 52 60 53 36 11 354 351 351 351 349 336 298 291 300
98 96 94 84 72 81 95 92 85 83 84 84 80 77 76 82 85 86 80 80 85 82 74 70 56 41 35 37 37 39 43 39 36 353 335 328 338 342 339 332 319 316 313
100 97 99 90 75 69 89 96 91 91 88 82 76 74 73 70 74 82 85 80 78 83 80 75 64 34 20 19 24 26 25 23 20 345 337 340 345 343 341 335 331 331 328
105 104 102 97 87 78 80 89 93 90 88 85 78 74 76 72 66 65 71 81 82 87 87 80 68 36 15 10 6 5 6 6 3 351 345 348 353 350 335 333 337 336 323
104 102 101 99 95 90 84 83 89 94 92 89 87 82 81 84 77 68 58 68 65 95 110 103 96 56 20 354 354 1 358 351 343 340 349 357 351 348 344 338 334 331 329
105 103 100 98 96 92 85 77 81 95 99 92 84 82 83 82 86 87 70 50 60 64 70 77 76 50 27 5 14 15 14 10 7 15 358 346 341 336 332 329 326 325 323